TimeCDT,TemperatureF,Dew PointF,Humidity,Sea Level PressureIn,VisibilityMPH,Wind Direction,Wind SpeedMPH,Gust SpeedMPH,PrecipitationIn,Events,Conditions,WindDirDegrees,DateUTC
12:56 AM,78.1,70.0,76,30.02,10.0,SE,6.9,-,N/A,,Clear,130,2013-09-09 05:56:00
1:56 AM,77.0,70.0,79,30.02,10.0,SSE,3.5,-,N/A,,Clear,150,2013-09-09 06:56:00
2:56 AM,77.0,70.0,79,30.02,10.0,Calm,Calm,-,N/A,,Clear,0,2013-09-09 07:56:00
3:56 AM,75.0,70.0,84,30.03,10.0,Calm,Calm,-,N/A,,Clear,0,2013-09-09 08:56:00
4:56 AM,73.9,70.0,87,30.03,10.0,Calm,Calm,-,N/A,,Clear,0,2013-09-09 09:56:00
5:56 AM,73.0,69.1,87,30.03,10.0,Calm,Calm,-,N/A,,Clear,0,2013-09-09 10:56:00
6:56 AM,73.0,70.0,90,30.04,10.0,Calm,Calm,-,N/A,,Clear,0,2013-09-09 11:56:00
7:56 AM,73.9,70.0,87,30.06,10.0,Calm,Calm,-,N/A,,Partly Cloudy,0,2013-09-09 12:56:00
8:08 AM,75.2,71.6,89,30.00,10.0,Calm,Calm,-,N/A,,Mostly Cloudy,0,2013-09-09 13:08:00
8:56 AM,78.1,73.0,84,30.08,10.0,ESE,5.8,-,N/A,,Mostly Cloudy,120,2013-09-09 13:56:00
9:08 AM,78.8,71.6,78,30.02,10.0,SE,6.9,-,N/A,,Partly Cloudy,130,2013-09-09 14:08:00
9:56 AM,81.0,70.0,69,30.09,10.0,ESE,9.2,-,N/A,,Partly Cloudy,120,2013-09-09 14:56:00
10:56 AM,84.9,69.1,59,30.09,10.0,ESE,10.4,-,N/A,,Partly Cloudy,120,2013-09-09 15:56:00
11:56 AM,87.1,69.1,55,30.09,10.0,ESE,8.1,-,N/A,,Partly Cloudy,120,2013-09-09 16:56:00
12:56 PM,90.0,66.9,46,30.07,10.0,Variable,5.8,18.4,N/A,,Mostly Cloudy,0,2013-09-09 17:56:00
1:56 PM,89.1,66.0,46,30.05,10.0,ESE,9.2,-,N/A,,Scattered Clouds,120,2013-09-09 18:56:00
2:56 PM,91.0,64.0,41,30.02,10.0,East,9.2,-,N/A,,Scattered Clouds,100,2013-09-09 19:56:00
3:56 PM,91.0,64.9,42,30.01,10.0,East,6.9,-,N/A,,Overcast,100,2013-09-09 20:56:00
4:56 PM,91.0,64.0,41,29.99,10.0,SE,5.8,-,N/A,,Partly Cloudy,130,2013-09-09 21:56:00
5:56 PM,93.0,63.0,37,29.99,10.0,SE,21.9,34.5,N/A,,Scattered Clouds,130,2013-09-09 22:56:00
6:31 PM,75.2,71.6,89,29.98,7.0,ESE,18.4,33.4,0.06,Rain-Thunderstorm,Light Thunderstorms and Rain,120,2013-09-09 23:31:00
6:45 PM,75.2,71.6,89,29.99,10.0,SE,15.0,27.6,0.06,Rain-Thunderstorm,Light Thunderstorms and Rain,130,2013-09-09 23:45:00
6:56 PM,75.0,71.1,87,30.06,10.0,ESE,11.5,-,0.06,Rain-Thunderstorm,Light Thunderstorms and Rain,120,2013-09-09 23:56:00
7:11 PM,75.2,71.6,89,30.00,10.0,ESE,9.2,18.4,0.01,Rain,Light Rain,120,2013-09-10 00:11:00
7:56 PM,73.9,71.1,91,30.06,10.0,SSE,5.8,-,0.09,Rain,Rain,150,2013-09-10 00:56:00
8:56 PM,75.0,71.1,87,30.05,10.0,SE,3.5,-,0.01,,Partly Cloudy,140,2013-09-10 01:56:00
9:56 PM,75.0,71.1,87,30.06,10.0,SE,5.8,-,N/A,,Clear,140,2013-09-10 02:56:00
10:56 PM,73.9,71.1,91,30.06,10.0,SE,3.5,-,N/A,,Clear,130,2013-09-10 03:56:00
11:56 PM,73.9,71.1,91,30.07,10.0,Calm,Calm,-,N/A,,Clear,0,2013-09-10 04:56:00